KORSAT-3

Satellite information

Favourite Embed

Satellite Type and Status

PAYLOADIN ORBIT

Key statistics

Satellite KORSAT-3 at a glance.

Uptime

149

Days in orbit

Revolutions

≈ 15.0

Per day

Orbit

LEO

Low Earth Orbit

Inclination

45.4

Latest

Satellite identification and parameters

Extended collection of information and parameters for KORSAT-3.

Object identification

Identified? True

Debris? False

Object name: KORSAT-3

International designator: 2025-081A

Object number (NORAD): 63630

Object ID (CCSDS): 63630

Country: SOUTH KOREA (SKOR)

Current information (Y/N): Y

RCS size: LARGE

Orbital parameters

Period: 96.078 minutes

Inclination: 45.4124 deg

SMA: 6948.792 km

Apoapsis: 576.729 km

Periapsis: 564.584 km

RAAN: 309.1966 deg

Eccentricy: 0.00087395

Argument of periapsis: 203.3726 deg

Mean anomaly: 156.6756 deg

Mean motion: 14.98783261 rev/day

Mean motion (dot): 0.00003853 rev/day2

B* drag term: 0.00033355894 1/REarth

Two-line elements (TLE)

Creation date: Sept. 18, 2025, 3:57 a.m.

Reference frame: TEME

Reference center: EARTH

Epoch: Sept. 17, 2025, 2:41 p.m. UTC

TLE line 0: 0 KORSAT-3

TLE line 1: 1 63630U 25081A 25260.61231470 .00003853 00000-0 33356-3 0 9995

TLE line 2: 2 63630 45.4124 309.1966 0008739 203.3726 156.6756 14.98783261 22283

Live tracking on map

Real-time ground track for satellite KORSAT-3.

In-orbit conjunctions

There are no conjunctions computed for KORSAT-3, at the moment. Check back to stay up to date, as we update our databases every day.

Go to all conjunctions

Associated space launch

Dedicated rideshare flight to a mid-inclination orbit with dozens of small microsatellites and nanosatellites for commercial and government customers.

KORSAT-3 was lifted into orbit during the mission ‘Falcon 9 Block 5 | Bandwagon 3 (Dedicated Mid-Inclination Rideshare)’, on board a Falcon 9 space rocket.

The launch took place on April 22, 2025, 12:48 a.m. from Space Launch Complex 40.

For more information about the launch, click the button.

Launch to space Falcon 9 Block 5 | Bandwagon 3 (Dedicated Mid-Inclination Rideshare)
Falcon 9 Block 5 | Bandwagon 3 (Dedicated Mid-Inclination Rideshare)

Agency: SpaceX

Status: Launch Successful

Launch date: April 22, 2025, 12:48 a.m. UTC

Rocket: Falcon 9

Launch pad: Space Launch Complex 40

Location: Cape Canaveral SFS, FL, USA

...

Latest news about this satellite

News about space launch
SpaceX Launches Sparse Bandwagon-3 Mission with Just Three Payloads

SpaceX Launches Sparse Bandwagon-3 Mission with Just Three Payloads

News about space launch
ATMOS PHOENIX 1 Reaches Orbit; Conducts Critical Inflatable ReEntry Test

ATMOS PHOENIX 1 Reaches Orbit; Conducts Critical Inflatable ReEntry Test

News about space launch
Atmos Space Cargo declares first test flight a success despite reentry uncertainty

German startup Atmos Space Cargo says it considers the first flight of its reentry vehicle a success despite limited data on how it performed during reentry. The post Atmos Space Cargo declares first test flight a success despite reentry uncertainty appe...


Newsletter sign-up

Weekly statistics, charts and insights to help you stay on top of the space industry.